Torna al catalogo

GAOFEN 1

AttivoScienzaSSO
NORAD 39150·PAYLOAD·🇨🇳 China

Lanciato Apr 26, 2013 da Jiuquan Satellite Launch Center

Loading…

Prossimi Passaggi (prossime 24 ore)

TLE

AggiornatoSource: Space-Track

Epoca: Sep 14, 2026, 15:38 UTC

1 39150U 13018A   26257.65159365  .00000542  00000-0  84884-4 0  9990
2 39150  97.9023 327.8639 0016748 342.6753  17.3884 14.76538188721444

Traccia GAOFEN 1 in tempo reale con AllMySat

Download on the App Store